Location: Albany
(35.0170°S, 117.8920°E)
Time: 03:22:33
(UTC+08:00)

Vanguard 1 - Pass Details

Date: 03 February 2021
Orbit: 649 x 3833 km, 34.2° (Epoch: 26 February)

Event Time Altitude Azimuth Distance (km) Brightness Sun altitude
Rises 19:52:07 0° 326° (NW) 7,496 14.7 -8.0°
Reaches altitude 10° 19:58:32 10° 334° (NNW) 6,057 14.1 -9.1°
Maximum altitude 20:12:33 32° 27° (NNE) 3,321 12.3 -11.7°
Enters shadow 20:20:38 12° 83° (E) 3,639 12.4 -13.1°
Drops below altitude 10° 20:21:15 10° 85° (E) 3,750 - -13.2°
Sets 20:24:07 0° 96° (E) 4,382 - -13.7°
